| time (UTC) | temp F | wind direction | speed MPH | gust MPH | rain 1hr in | rain 24hr in | rain mn in | humidity % | barometer mb |
| 20260905223330 | 75 | 184 | 2.0 | 4.0 | 0.00 | 0.19 | 0.19 | 82 | 1010.0 |
| 20260905221830 | 75 | 235 | 1.0 | 2.0 | 0.00 | 0.19 | 0.19 | 82 | 1009.3 |
| 20260905220327 | 75 | 234 | 1.0 | 2.0 | 0.01 | 0.19 | 0.19 | 83 | 1008.7 |
| 20260905214826 | 75 | 234 | 1.0 | 2.0 | 0.08 | 0.19 | 0.19 | 80 | 1008.6 |
| 20260905213343 | 76 | 313 | 4.0 | 8.0 | 0.14 | 0.19 | 0.19 | 79 | 1009.2 |
| 20260905211822 | 75 | 318 | 8.0 | 18.0 | 0.15 | 0.19 | 0.19 | 81 | 1009.1 |
| 20260905210319 | 74 | 260 | 2.0 | 7.0 | 0.18 | 0.18 | 0.18 | 80 | 1009.0 |
| 20260905204815 | 79 | 280 | 2.0 | 10.0 | 0.11 | 0.11 | 0.11 | 69 | 1009.5 |
| 20260905203336 | 87 | 311 | 4.0 | 10.0 | 0.05 | 0.05 | 0.05 | 67 | 1009.2 |
| 20260905201814 | 91 | 314 | 3.0 | 13.0 | 0.04 | 0.04 | 0.04 | 59 | 1008.7 |
| 20260905200313 | 97 | 252 | 0.0 | 4.0 | 0.00 | 0.00 | 0.00 | 45 | 1008.5 |
| 20260905194830 | 98 | 336 | 0.0 | 4.0 | 0.00 | 0.00 | 0.00 | 45 | 1008.4 |
| 20260905193330 | 98 | 337 | 4.0 | 6.0 | 0.00 | 0.00 | 0.00 | 44 | 1008.6 |
| 20260905191827 | 97 | 276 | 0.0 | 3.0 | 0.00 | 0.00 | 0.00 | 48 | 1008.9 |
| 20260905190324 | 97 | 347 | 4.0 | 6.0 | 0.00 | 0.00 | 0.00 | 45 | 1009.0 |
| 20260905184845 | 97 | 320 | 0.0 | 5.0 | 0.00 | 0.00 | 0.00 | 47 | 1009.1 |
| 20260905183320 | 95 | 342 | 2.0 | 8.0 | 0.00 | 0.00 | 0.00 | 50 | 1009.6 |
| 20260905181841 | 95 | 315 | 1.0 | 4.0 | 0.00 | 0.00 | 0.00 | 48 | 1010.0 |
| 20260905180315 | 95 | 304 | 0.0 | 5.0 | 0.00 | 0.00 | 0.00 | 52 | 1010.3 |
| 20260905174815 | 95 | 355 | 2.0 | 5.0 | 0.00 | 0.00 | 0.00 | 51 | 1010.5 |
| 20260905173314 | 95 | 360 | 4.0 | 8.0 | 0.00 | 0.00 | 0.00 | 53 | 1010.7 |
| 20260905171815 | 94 | 341 | 1.0 | 6.0 | 0.00 | 0.00 | 0.00 | 55 | 1010.9 |
| 20260905170314 | 94 | 332 | 1.0 | 5.0 | 0.00 | 0.00 | 0.00 | 55 | 1011.2 |
| 20260905164812 | 94 | 294 | 1.0 | 3.0 | 0.00 | 0.00 | 0.00 | 55 | 1011.3 |
| 20260905163315 | 93 | 313 | 2.0 | 4.0 | 0.00 | 0.00 | 0.00 | 55 | 1011.8 |
| 20260905161831 | 92 | 238 | 1.0 | 4.0 | 0.00 | 0.00 | 0.00 | 57 | 1011.9 |
| 20260905160314 | 92 | 320 | 3.0 | 5.0 | 0.00 | 0.00 | 0.00 | 58 | 1012.0 |
| 20260905154831 | 91 | 237 | 1.0 | 7.0 | 0.00 | 0.00 | 0.00 | 59 | 1012.1 |
| 20260905153313 | 90 | 227 | 2.0 | 3.0 | 0.00 | 0.00 | 0.00 | 62 | 1012.3 |
| 20260905151832 | 89 | 205 | 1.0 | 5.0 | 0.00 | 0.00 | 0.00 | 65 | 1012.4 |
| 20260905150313 | 89 | 262 | 1.0 | 4.0 | 0.00 | 0.00 | 0.00 | 65 | 1012.5 |
| 20260905144829 | 89 | 267 | 0.0 | 3.0 | 0.00 | 0.00 | 0.00 | 68 | 1012.8 |
| 20260905143328 | 87 | 270 | 0.0 | 3.0 | 0.00 | 0.00 | 0.00 | 68 | 1012.8 |
| 20260905141822 | 87 | 286 | 2.0 | 3.0 | 0.00 | 0.00 | 0.00 | 69 | 1012.8 |
| 20260905140339 | 86 | 284 | 1.0 | 4.0 | 0.00 | 0.00 | 0.00 | 70 | 1012.8 |
| 20260905134818 | 85 | 246 | 0.0 | 2.0 | 0.00 | 0.00 | 0.00 | 73 | 1012.8 |
| 20260905133314 | 83 | 246 | 0.0 | 4.0 | 0.00 | 0.00 | 0.00 | 75 | 1012.9 |
| 20260905131814 | 82 | 254 | 0.0 | 1.0 | 0.00 | 0.00 | 0.00 | 77 | 1013.0 |
| 20260905130330 | 81 | 266 | 0.0 | 1.0 | 0.00 | 0.00 | 0.00 | 80 | 1013.1 |
| 20260905124826 | 80 | 110 | 0.0 | 0.0 | 0.00 | 0.00 | 0.00 | 83 | 1013.2 |
| 20260905123327 | 79 | 110 | 0.0 | 0.0 | 0.00 | 0.00 | 0.00 | 85 | 1013.1 |
| 20260905121824 | 77 | 110 | 0.0 | 0.0 | 0.00 | 0.00 | 0.00 | 87 | 1013.0 |
| 20260905120323 | 76 | 110 | 0.0 | 0.0 | 0.00 | 0.00 | 0.00 | 88 | 1012.8 |